This is the latest recevied weather packets stored in our database for station/object KM5R. If no packets are shown the sender has not sent any weather packets the latest 10 day(s).
| Time | Temp. | Humidity | Pressure | Rain* | Wind** | Luminosity | Snow |
|---|---|---|---|---|---|---|---|
| 1777918394 | 24.44° C | 62% | 1013.7 hPa | 0 mm | - | 701 W/m² | - |
| 1777918093 | 24.44° C | 62% | 1014 hPa | 0 mm | - | 764 W/m² | - |
| 1777917790 | 23.89° C | 62% | 1014 hPa | 0 mm | - | 773 W/m² | - |
| 1777917488 | 24.44° C | 63% | 1013.9 hPa | 0 mm | - | 837 W/m² | - |
| 1777917185 | 24.44° C | 62% | 1014 hPa | 0 mm | - | 796 W/m² | - |
| 1777916883 | 24.44° C | 61% | 1013.9 hPa | 0 mm | - | 614 W/m² | - |
| 1777916580 | 24.44° C | 61% | 1013.9 hPa | 0 mm | - | 210 W/m² | - |
| 1777916276 | 25° C | 61% | 1014.2 hPa | 0 mm | - | 768 W/m² | - |
| 1777915974 | 24.44° C | 61% | 1014.1 hPa | 0 mm | - | 736 W/m² | - |
| 1777915670 | 24.44° C | 60% | 1014.2 hPa | 0 mm | - | 721 W/m² | - |
| 1777915367 | 23.89° C | 61% | 1014.6 hPa | 0 mm | - | 812 W/m² | - |
| 1777915063 | 23.89° C | 62% | 1014.5 hPa | 0 mm | - | 441 W/m² | - |
| 1777914760 | 23.89° C | 62% | 1014.6 hPa | 0 mm | - | 340 W/m² | - |
| 1777914457 | 23.89° C | 61% | 1014.4 hPa | 0 mm | - | 382 W/m² | - |
| 1777914155 | 23.89° C | 61% | 1014.5 hPa | 0 mm | - | 788 W/m² | - |
| 1777913851 | 23.33° C | 63% | 1014.6 hPa | 0 mm | - | 780 W/m² | - |
| 1777913547 | 23.33° C | 63% | 1014.6 hPa | 0 mm | - | 748 W/m² | - |
| 1777913243 | 23.33° C | 62% | 1014.6 hPa | 0 mm | - | 713 W/m² | - |
| 1777912941 | 23.33° C | 63% | 1014.7 hPa | 0 mm | - | 728 W/m² | - |
| 1777912636 | 23.33° C | 63% | 1014.9 hPa | 0 mm | - | 695 W/m² | - |
| 1777912333 | 22.78° C | 63% | 1015 hPa | 0 mm | - | 637 W/m² | - |
| 1777912028 | 22.78° C | 64% | 1014.8 hPa | 0 mm | - | 649 W/m² | - |
| 1777911725 | 22.78° C | 65% | 1015 hPa | 0 mm | - | 634 W/m² | - |
| 1777911421 | 22.78° C | 64% | 1015 hPa | 0 mm | - | 615 W/m² | - |
| 1777911119 | 22.22° C | 65% | 1014.9 hPa | 0 mm | - | 607 W/m² | - |
* Rain latest hour (hover to see other rain measurements)
** Current wind speed in m/s (hover to see current wind gust speed)